sat.trackr.live / text

‹ back to catalog

STARLINK-30610

NORAD 58082 · 2023-160H

PAYLOAD ACTIVE UNKNOWN

§ Identity

Operator
Country
US
Launch date
2023-10-18
Launch site
AFETR
Launch vehicle
Mass (kg)
RCS (m²)

Purposes: comms

External: N2YO · Heavens-Above · Gunter

§ Orbital elements

Epoch: 2026-05-24T22:38:00.607776Z

Period
94.27 min
Inclination
43.0073°
Eccentricity
0.0001734
Mean motion
15.27587834 rev/d
Perigee alt
481.8 km
Apogee alt
484.2 km
Semi-major
6,861.2 km
B*
1.8096e-5
RAAN
7.6015°
Arg perigee
233.2554°
Mean anomaly
126.8139°
Rev number
14,460

§ Raw data

STARLINK-306101 58082U 23160H   26144.94306259  .00000236  00000+0  18096-4 0  99982 58082  43.0073   7.6015 0001734 233.2554 126.8139 15.27587834144605

JSON: /api/v1/satellites/58082 · /tle

For live sub-satellite position, see the globe view (requires WebGL).

§ Visibility from observer

Set your observer location to see the next 7 days of passes ≥ 10°. The values pass through the URL so the page stays shareable.

No JS? Fill the form by hand. The geolocation button needs JavaScript.